Location: Bratsk-Energetik
(56.3300°N, 101.7600°E)
Time: 12:13:29
(UTC+08:00)

ISS - Pass Details

Date: 18 July 2018
Orbit: 402 x 408 km, 51.6° (Epoch: 21 July)

Event Time Altitude Azimuth Distance (km) Brightness Sun altitude
Exits shadow 02:12:30 - 245° (WSW) 1,576 -1.2 -11.7°
Reaches altitude 10° 02:12:47 10° 243° (WSW) 1,467 -1.4 -11.7°
Maximum altitude 02:15:49 35° 176° (S) 673 -3.2 -11.6°
Drops below altitude 10° 02:18:52 10° 108° (ESE) 1,471 -1.0 -11.5°
Sets 02:21:03 0° 100° (E) 2,333 0.1 -11.5°
